DW8228 Nauvo FI current weather conditions

sailwx.info

Wind from 016 at 0 knots gusting 8

Air temperature 7.8° C
Dewpoint 5.1° C

Last reported at 2019-Sep-22 01:00 UTC.
Time now 2019-Sep-22 01:33 UTC

Location: N 60°05' E 022°01'.
View on Google Maps.

See reports from other nearby stations

  
Tides and Currents Weather Stations Pressure Air Temp Water Temp Dewpoint Dewpoint Depression Visibility Wind Speed Wind Dir Waves Ship Positions
date/time (UTC)wind fromknots sea level pressurealtimeterstation pressurevisibilityair tempwater tempwave heightnotes
2019-Sep-22 01:00 016 0 gusting 8 7.8
2019-Sep-22 00:45 067 2 gusting 9 7.8
2019-Sep-22 00:16 111 1 gusting 6 8.3
2019-Sep-22 00:02 038 2 gusting 8 8.3
2019-Sep-21 23:46 027 2 gusting 8 8.3
2019-Sep-21 23:31 037 2 gusting 8 8.3
2019-Sep-21 23:16 066 1 gusting 8 8.3
2019-Sep-21 23:01 343 3 gusting 10 8.9
2019-Sep-21 22:46 014 0 gusting 7 8.9
2019-Sep-21 22:31 303 2 gusting 9 8.9
2019-Sep-21 22:15 356 2 gusting 7 8.9
2019-Sep-21 22:01 359 0 gusting 12 8.9
2019-Sep-21 21:46 285 1 gusting 13 9.4
2019-Sep-21 21:31 012 3 gusting 8 9.4
2019-Sep-21 21:16 327 2 gusting 12 9.4
2019-Sep-21 21:01 325 3 gusting 10 9.4
2019-Sep-21 20:45 081 1 gusting 9 9.4
2019-Sep-21 20:30 003 1 gusting 8 10.0
2019-Sep-21 20:15 004 2 gusting 12 10.0
2019-Sep-21 20:01 008 5 gusting 12 10.6
2019-Sep-21 19:46 014 5 gusting 13 10.6
2019-Sep-21 19:30 056 3 gusting 16 10.6
2019-Sep-21 19:15 318 4 gusting 18 11.1
2019-Sep-21 19:00 314 4 gusting 13 11.1
2019-Sep-21 18:45 358 4 gusting 13 11.1
2019-Sep-21 18:30 278 6 gusting 15 11.7
2019-Sep-21 18:15 337 5 gusting 15 11.7
2019-Sep-21 18:01 353 6 gusting 20 11.7
2019-Sep-21 17:45 321 6 gusting 13 11.7
2019-Sep-21 17:30 341 5 gusting 12 11.7
2019-Sep-21 17:15 335 5 gusting 16 11.7
2019-Sep-21 17:00 338 7 gusting 13 11.7
2019-Sep-21 16:45 308 6 gusting 16 11.7
2019-Sep-21 16:30 315 6 gusting 13 11.7
2019-Sep-21 16:15 306 5 gusting 14 12.2
2019-Sep-21 16:00 344 6 gusting 15 12.2
2019-Sep-21 15:46 311 5 gusting 13 12.2
2019-Sep-21 15:31 356 3 gusting 15 12.2
2019-Sep-21 15:16 324 4 gusting 12 12.2
2019-Sep-21 15:03 302 6 gusting 13 12.2
2019-Sep-21 14:46 326 4 gusting 14 12.8
2019-Sep-21 14:31 316 6 gusting 14 12.8
2019-Sep-21 14:17 324 6 gusting 14 12.8
2019-Sep-21 14:01 321 4 gusting 10 12.8
2019-Sep-21 13:46 295 6 gusting 13 12.8
2019-Sep-21 13:31 330 6 gusting 16 13.3
2019-Sep-21 13:16 304 5 gusting 14 13.9
2019-Sep-21 13:01 031 6 gusting 18 13.9
2019-Sep-21 12:47 322 7 gusting 17 13.9
2019-Sep-21 12:31 316 5 gusting 14 13.9
2019-Sep-21 12:16 012 4 gusting 15 13.3
2019-Sep-21 12:01 320 6 gusting 17 13.9
2019-Sep-21 11:46 326 6 gusting 13 13.9
2019-Sep-21 11:30 360 4 gusting 13 13.9
2019-Sep-21 11:16 212 3 gusting 14 13.9
2019-Sep-21 11:01 308 4 gusting 13 13.9
2019-Sep-21 10:46 322 4 gusting 15 13.9
2019-Sep-21 10:31 280 5 gusting 14 13.9
2019-Sep-21 10:16 321 6 gusting 13 13.9
2019-Sep-21 10:01 360 6 gusting 14 13.3
2019-Sep-21 09:46 299 3 gusting 16 12.8
2019-Sep-21 09:31 318 6 gusting 17 13.3
2019-Sep-21 09:00 337 5 gusting 12 13.3
2019-Sep-21 08:46 293 4 gusting 10 13.3
2019-Sep-21 08:31 355 7 gusting 17 13.3
2019-Sep-21 08:15 318 10 gusting 18 13.3
2019-Sep-21 08:01 339 5 gusting 14 13.3
2019-Sep-21 07:45 315 5 gusting 16 13.3
2019-Sep-21 07:30 333 6 gusting 19 13.3
2019-Sep-21 07:15 296 5 gusting 15 12.8
2019-Sep-21 07:00 311 5 gusting 13 12.8
2019-Sep-21 06:46 287 6 gusting 13 12.8
2019-Sep-21 06:30 360 7 gusting 15 12.2
2019-Sep-21 06:15 291 6 gusting 13 12.2
2019-Sep-21 06:00 282 6 gusting 13 12.2
2019-Sep-21 05:45 272 6 gusting 13 12.2
2019-Sep-21 05:30 305 6 gusting 13 11.7
2019-Sep-21 05:15 313 5 gusting 12 11.7
2019-Sep-21 05:00 180 7 gusting 18 11.7
2019-Sep-21 04:45 289 6 gusting 13 11.7
2019-Sep-21 04:30 309 7 gusting 13 11.7
2019-Sep-21 04:15 315 9 gusting 16 11.7
2019-Sep-21 04:00 314 5 gusting 13 11.7
2019-Sep-21 03:45 299 6 gusting 13 11.7
2019-Sep-21 03:30 291 7 gusting 13 11.7
2019-Sep-21 03:15 305 5 gusting 17 11.7
2019-Sep-21 03:00 314 7 gusting 14 11.7
2019-Sep-21 02:45 316 6 gusting 13 11.7
2019-Sep-21 02:33 332 4 gusting 13 11.1
2019-Sep-21 02:17 309 4 gusting 13 11.1
2019-Sep-21 02:01 309 3 gusting 9 11.1
2019-Sep-21 01:46 272 3 gusting 7 11.1
2019-Sep-21 01:31 304 4 gusting 11 10.6
2019-Sep-21 01:16 285 3 gusting 8 10.6
2019-Sep-21 01:01 272 5 gusting 9 10.6
2019-Sep-21 00:46 286 4 gusting 9 10.6
2019-Sep-21 00:31 281 3 gusting 8 10.6
2019-Sep-21 00:16 311 5 gusting 9 10.6
2019-Sep-21 00:00 254 6 gusting 11 10.6
2019-Sep-20 23:46 289 6 gusting 13 10.6
2019-Sep-20 23:31 308 7 gusting 14 10.6
2019-Sep-20 23:16 314 6 gusting 13 10.6
2019-Sep-20 23:00 282 6 gusting 10 10.6
2019-Sep-20 22:45 286 5 gusting 11 10.6
2019-Sep-20 22:30 291 6 gusting 10 10.6
2019-Sep-20 22:16 247 5 gusting 9 10.6
2019-Sep-20 22:00 238 5 gusting 13 10.0
2019-Sep-20 21:45 239 5 gusting 12 10.0
2019-Sep-20 21:30 220 4 gusting 12 10.0
2019-Sep-20 21:15 254 4 gusting 11 9.4
2019-Sep-20 21:00 231 4 gusting 12 9.4
2019-Sep-20 20:45 218 3 gusting 12 9.4
2019-Sep-20 20:30 205 6 gusting 12 9.4
2019-Sep-20 20:15 250 5 gusting 9 8.9
2019-Sep-20 20:02 265 5 gusting 12 8.9
2019-Sep-20 19:48 249 6 gusting 11 8.9
2019-Sep-20 19:32 218 5 gusting 10 9.4
2019-Sep-20 19:16 229 5 gusting 12 9.4
2019-Sep-20 19:01 260 5 gusting 11 9.4
2019-Sep-20 18:48 242 5 gusting 13 9.4
2019-Sep-20 18:31 220 6 gusting 13 9.4
2019-Sep-20 18:16 280 7 gusting 13 9.4
2019-Sep-20 18:01 283 4 gusting 13 9.4
2019-Sep-20 17:46 239 6 gusting 12 9.4
2019-Sep-20 17:31 259 6 gusting 11 9.4
2019-Sep-20 17:16 260 5 gusting 9 9.4
2019-Sep-20 17:01 241 5 gusting 13 9.4
2019-Sep-20 16:46 275 4 gusting 13 9.4
2019-Sep-20 16:31 254 4 gusting 13 9.4
2019-Sep-20 16:16 277 5 gusting 13 9.4
2019-Sep-20 16:01 297 6 gusting 13 10.0
2019-Sep-20 15:46 258 6 gusting 12 10.0
2019-Sep-20 15:30 296 5 gusting 12 10.6
2019-Sep-20 15:16 180 5 gusting 9 10.6
2019-Sep-20 15:01 264 6 gusting 10 10.0
2019-Sep-20 14:46 277 5 gusting 9 10.0
2019-Sep-20 14:31 275 3 gusting 7 10.0
2019-Sep-20 14:15 316 0 gusting 6 10.0
2019-Sep-20 14:00 274 0 gusting 3 9.4
2019-Sep-20 13:45 349 1 gusting 9 8.9
2019-Sep-20 13:30 358 6 gusting 13 9.4
2019-Sep-20 13:15 329 2 gusting 6 8.9
2019-Sep-20 13:00 262 2 gusting 8 8.3
2019-Sep-20 12:45 351 4 gusting 12 8.3
2019-Sep-20 12:30 288 7 gusting 13 10.6
2019-Sep-20 12:16 311 6 gusting 9 10.6
2019-Sep-20 12:00 272 2 gusting 8 10.0
2019-Sep-20 11:45 311 3 gusting 8 10.0
2019-Sep-20 11:30 251 4 gusting 8 9.4
2019-Sep-20 11:16 264 2 gusting 8 8.9
2019-Sep-20 11:00 292 1 gusting 13 8.3
2019-Sep-20 10:45 305 8 gusting 16 11.1
2019-Sep-20 10:30 274 6 gusting 11 11.1
2019-Sep-20 10:15 263 7 gusting 13 11.1
2019-Sep-20 10:00 295 2 gusting 12 11.7
2019-Sep-20 09:45 333 6 gusting 11 11.1
2019-Sep-20 09:30 283 0 gusting 3 11.1
2019-Sep-20 09:15 295 0 gusting 3 10.6
2019-Sep-20 09:02 056 10.6
2019-Sep-20 08:46 056 10.0
2019-Sep-20 08:32 062 1 gusting 5 9.4
2019-Sep-20 08:16 037 1 gusting 7 10.0
2019-Sep-20 08:01 308 0 gusting 6 10.0
2019-Sep-20 07:45 312 0 gusting 5 9.4
2019-Sep-20 07:31 322 8.9
2019-Sep-20 07:16 348 0 gusting 3 8.9
2019-Sep-20 07:01 348 8.3
2019-Sep-20 06:46 355 8.3
2019-Sep-20 06:31 306 2 gusting 10 7.8
2019-Sep-20 06:16 264 4 gusting 7 7.2
2019-Sep-20 06:01 277 2 gusting 6 7.2
2019-Sep-20 05:46 289 5 gusting 11 8.3
2019-Sep-20 05:31 276 3 gusting 7 8.3
2019-Sep-20 05:16 330 3 gusting 9 8.3
2019-Sep-20 05:01 290 3 gusting 7 8.3
2019-Sep-20 04:45 275 2 gusting 8 7.8
2019-Sep-20 04:30 262 3 gusting 7 7.8
2019-Sep-20 04:15 275 3 gusting 9 7.8
2019-Sep-20 04:00 301 1 gusting 8 7.8
2019-Sep-20 03:45 289 6 gusting 13 7.8
2019-Sep-20 03:30 290 4 gusting 9 7.8
2019-Sep-20 03:15 322 1 gusting 6 7.8
2019-Sep-20 03:00 325 1 gusting 8 7.8
2019-Sep-20 02:45 337 0 gusting 6 8.3
2019-Sep-20 02:30 297 1 gusting 6 8.3
2019-Sep-20 02:15 289 2 gusting 6 7.8
2019-Sep-20 02:01 274 0 gusting 5 7.8
2019-Sep-20 01:45 312 1 gusting 9 8.3
2019-Sep-20 01:30 295 2 gusting 7 8.3
2019-Sep-20 01:15 310 1 gusting 6 7.8
2019-Sep-20 01:00 311 0 gusting 6 7.8